EW8320 Weather Reports


Display with metric or nautical units.
time (UTC)temp
F
wind
direction
speed
MPH
gust
MPH
rain 1hr
in
rain 24hr
in
rain mn
in
humidity
%
barometer
mb
20260902094023 45 222 0.0 0.0 0.00 0.00 0.00 92 1013.2
20260902093024 44 225 0.0 0.0 0.00 0.00 0.00 79 1013.4
20260902091122 38 204 0.0 1.0 0.00 0.00 0.00 75 1013.3
20260902090124 42 202 0.0 0.0 0.00 0.00 0.00 74 1013.4
20260902085123 46 202 0.0 0.0 0.00 0.00 0.00 77 1013.4
20260902084126 47 202 0.0 0.0 0.00 0.00 0.00 77 1013.4
20260902083124 47 225 2.0 2.0 0.00 0.00 0.00 81 1013.1
20260902081124 48 247 0.0 0.0 0.00 0.00 0.00 70 1013.2
20260902080122 48 212 1.0 2.0 0.00 0.00 0.00 70 1013.0
20260902075124 48 253 0.0 1.0 0.00 0.00 0.00 68 1013.0
20260902074124 41 247 0.0 0.0 0.00 0.00 0.00 69 1013.1
20260902073122 45 224 2.0 4.0 0.00 0.00 0.00 66 1013.1
20260902072123 50 202 1.0 3.0 0.00 0.00 0.00 65 1013.0
20260902070123 52 225 2.0 3.0 0.00 0.00 0.00 59 1013.1
20260902065115 51 292 0.0 1.0 0.00 0.00 0.00 60 1013.0
20260902063215 52 270 0.0 0.0 0.00 0.00 0.00 59 1013.0
20260902062215 52 270 0.0 0.0 0.00 0.00 0.00 57 1013.0
20260902060215 53 270 0.0 0.0 0.00 0.00 0.00 56 1012.8
20260902055213 53 270 0.0 0.0 0.00 0.00 0.00 53 1012.6
20260902053214 44 180 0.0 0.0 0.00 0.00 0.00 52 1012.7
20260902051313 57 45 0.0 0.0 0.00 0.00 0.00 47 1012.6
20260902050315 60 247 0.0 0.0 0.00 0.00 0.00 45 1012.5
20260902043513 66 45 0.0 2.0 0.00 0.00 0.00 36 1012.3
20260902042514 69 348 2.0 4.0 0.00 0.00 0.00 33 1012.2
20260902041513 70 336 4.0 7.0 0.00 0.00 0.00 33 1012.1
20260902040514 67 296 5.0 8.0 0.00 0.00 0.00 35 1011.9
20260902035514 62 343 0.0 1.0 0.00 0.00 0.00 39 1011.8
20260902034517 63 155 0.0 0.0 0.00 0.00 0.00 38 1011.6
20260902033516 64 218 0.0 0.0 0.00 0.00 0.00 35 1011.5
20260902032516 65 213 1.0 3.0 0.00 0.00 0.00 33 1011.3
20260902031514 66 269 0.0 0.0 0.00 0.00 0.00 30 1011.0
20260902030613 63 223 3.0 4.0 0.00 0.00 0.00 27 1010.9
20260902025615 61 270 5.0 7.0 0.00 0.00 0.00 27 1010.8
20260902024613 58 277 3.0 6.0 0.00 0.00 0.00 27 1011.0
20260902023713 60 277 3.0 5.0 0.00 0.00 0.00 27 1010.8
20260902022716 59 284 3.0 4.0 0.00 0.00 0.00 27 1011.0
20260902021714 61 282 4.0 6.0 0.00 0.00 0.00 27 1010.8
20260902020813 67 292 2.0 3.0 0.00 0.00 0.00 27 1011.0
20260902015816 75 265 2.0 5.0 0.00 0.00 0.00 26 1011.0
20260902014814 76 256 5.0 8.0 0.00 0.00 0.00 26 1011.1
20260902013912 76 254 3.0 6.0 0.00 0.00 0.00 24 1011.2
20260902012916 77 248 3.0 6.0 0.00 0.00 0.00 26 1011.1
20260902011915 77 259 2.0 6.0 0.00 0.00 0.00 24 1011.0
20260902011014 78 259 3.0 6.0 0.00 0.00 0.00 24 1011.0
20260902010915 78 273 4.0 7.0 0.00 0.00 0.00 25 1011.0
20260902005915 80 267 6.0 12.0 0.00 0.00 0.00 25 1011.3
20260902005014 80 209 4.0 7.0 0.00 0.00 0.00 25 1011.2
20260902003917 80 245 0.0 0.0 0.00 0.00 0.00 25 1011.4
20260902002914 78 296 0.0 4.0 0.00 0.00 0.00 29 1011.4
20260902001914 78 84 5.0 7.0 0.00 0.00 0.00 41 1011.5
20260902000915 80 67 1.0 3.0 0.00 0.00 0.00 46 1011.4
20260901235923 70 61 2.0 4.0 0.00 0.00 0.00 34 1011.8
20260901235022 72 337 2.0 4.0 0.00 0.00 0.00 33 1011.8
20260901234022 78 99 1.0 2.0 0.00 0.00 0.00 31 1011.9
20260901232026 76 99 2.0 3.0 0.00 0.00 0.00 34 1012.0
20260901231025 77 247 2.0 3.0 0.00 0.00 0.00 34 1012.2
20260901230023 67 255 2.0 4.0 0.00 0.00 0.00 34 1012.2
20260901225022 56 200 4.0 6.0 0.00 0.00 0.00 36 1012.4
20260901223023 61 221 3.0 5.0 0.00 0.00 0.00 38 1012.7
20260901222024 75 214 4.0 7.0 0.00 0.00 0.00 37 1012.7
20260901221026 75 177 4.0 7.0 0.00 0.00 0.00 37 1012.9
20260901220923 74 179 5.0 7.0 0.00 0.00 0.00 37 1012.9
20260901215928 70 206 2.0 5.0 0.00 0.00 0.00 31 1013.0
20260901214042 71 180 0.0 0.0 0.00 0.00 0.00 45 1013.3
20260901211125 69 266 1.0 2.0 0.00 0.00 0.00 47 1014.1
20260901210223 68 90 0.0 0.0 0.00 0.00 0.00 48 1013.8
20260901204224 69 157 0.0 0.0 0.00 0.00 0.00 43 1014.6
20260901202224 69 337 2.0 4.0 0.00 0.00 0.00 41 1014.8
20260901200240 70 42 5.0 7.0 0.00 0.00 0.00 42 1014.9
20260901195325 71 41 3.0 5.0 0.00 0.00 0.00 40 1015.0
20260901194328 72 112 2.0 3.0 0.00 0.00 0.00 37 1015.0
20260901191412 72 221 3.0 4.0 0.00 0.00 0.00 37 1015.2
20260901190411 72 277 6.0 10.0 0.00 0.00 0.00 37 1015.2
20260901185510 64 268 7.0 12.0 0.00 0.00 0.00 38 1014.9
20260901185411 63 257 8.0 14.0 0.00 0.00 0.00 38 1014.9
20260901184412 60 205 5.0 7.0 0.00 0.00 0.00 34 1014.7
20260901183510 60 112 1.0 3.0 0.00 0.00 0.00 34 1015.0
20260901182513 58 74 2.0 4.0 0.00 0.00 0.00 39 1014.8
20260901180510 58 67 0.0 0.0 0.00 0.00 0.00 37 1014.8
20260901175510 59 135 0.0 2.0 0.00 0.00 0.00 35 1014.6
20260901174511 59 112 2.0 3.0 0.00 0.00 0.00 35 1014.4
20260901173510 57 212 0.0 1.0 0.00 0.00 0.00 36 1014.4
20260901172511 56 121 2.0 4.0 0.00 0.00 0.00 33 1014.1
20260901171611 56 135 0.0 0.0 0.00 0.00 0.00 34 1014.4
20260901171524 56 135 0.0 0.0 0.00 0.00 0.00 33 1014.3
20260901170511 52 221 1.0 3.0 0.00 0.00 0.00 33 1014.5
20260901165514 44 285 1.0 4.0 0.00 0.00 0.00 33 1014.6
20260901164511 54 202 0.0 2.0 0.00 0.00 0.00 31 1014.5
20260901163510 55 234 1.0 2.0 0.00 0.00 0.00 35 1014.6
20260901161512 55 113 2.0 3.0 0.00 0.00 0.00 10 1014.6
20260901160510 56 87 5.0 7.0 0.00 0.00 0.00 35 1014.4
20260901155609 54 45 4.0 7.0 0.00 0.00 0.00 43 1014.3
20260901153710 51 109 3.0 4.0 0.00 0.00 0.00 36 1014.0
20260901152712 49 112 0.0 0.0 0.00 0.00 0.00 59 1013.9
20260901151711 49 202 0.0 0.0 0.00 0.00 0.00 64 1013.6
20260901150810 48 183 1.0 2.0 0.00 0.00 0.00 55 1013.7
20260901145818 48 90 0.0 0.0 0.00 0.00 0.00 53 1013.7
20260901144913 48 90 0.0 0.0 0.00 0.00 0.00 54 1013.6
20260901143913 47 292 0.0 0.0 0.00 0.00 0.00 56 1013.5
20260901142010 47 247 0.0 0.0 0.00 0.00 0.00 55 1013.5
20260901140031 48 36 1.0 2.0 0.00 0.00 0.00 44 1013.6
20260901135111 48 213 0.0 0.0 0.00 0.00 0.00 35 1013.4
20260901134113 48 280 1.0 3.0 0.00 0.00 0.00 100 1013.5
20260901134011 49 256 1.0 3.0 0.00 0.00 0.00 100 1013.5
20260901133012 49 268 0.0 3.0 0.00 0.00 0.00 21 1013.4
20260901132030 49 271 3.0 6.0 0.00 0.00 0.00 40 1013.3
20260901130211 49 269 1.0 3.0 0.00 0.00 0.00 44 1013.4
20260901125214 49 275 3.0 4.0 0.00 0.00 0.00 35 1013.6
20260901124113 49 250 2.0 6.0 0.00 0.00 0.00 42 1013.6
20260901123112 49 250 1.0 2.0 0.00 0.00 0.00 36 1013.6
20260901122113 49 263 3.0 5.0 0.00 0.00 0.00 45 1013.7
20260901121211 49 261 4.0 7.0 0.00 0.00 0.00 27 1013.8
20260901120211 50 271 4.0 7.0 0.00 0.00 0.00 25 1013.8
20260901114311 48 266 3.0 5.0 0.00 0.00 0.00 49 1014.0
20260901113311 47 256 2.0 4.0 0.00 0.00 0.00 28 1014.0
20260901112311 45 226 2.0 4.0 0.00 0.00 0.00 32 1013.9
20260901111312 43 255 0.0 3.0 0.00 0.00 0.00 51 1013.9
20260901110410 43 270 0.0 0.0 0.00 0.00 0.00 58 1014.1
20260901105413 42 270 0.0 0.0 0.00 0.00 0.00 57 1014.2
20260901104510 43 226 1.0 3.0 0.00 0.00 0.00 55 1014.3
20260901102512 44 202 0.0 2.0 0.00 0.00 0.00 50 1014.4
20260901101610 44 258 1.0 3.0 0.00 0.00 0.00 53 1014.4
20260901100614 43 282 2.0 5.0 0.00 0.00 0.00 57 1014.6
20260901095709 41 208 1.0 2.0 0.00 0.00 0.00 61 1014.7